Location: Highridge
(54.0333°N, 114.1333°W)
Time: 11:52:31
(UTC+00:00)

ITUPSAT 1 - Visible Passes

Search period start: 30 November 2023 00:00
Search period end: 10 December 2023 00:00
Orbit: 697 x 707 km, 98.5° (Epoch: 29 November)

Date Brightness Start Highest point End Pass type
(mag) Time Alt. Az. Time Alt. Az. Time Alt. Az.
30 Nov ? 14:43:59 10° ESE 14:47:41 23° NE 14:51:22 10° N visible
01 Dec ? 13:52:50 10° NE 13:53:28 10° NE 13:54:06 10° NE visible
02 Dec ? 14:32:15 10° E 14:35:34 19° NE 14:38:52 10° N visible
04 Dec ? 14:20:37 10° E 14:23:27 16° NE 14:26:17 10° NNE visible
06 Dec ? 14:09:07 10° ENE 14:11:20 13° NE 14:13:34 10° NNE visible
07 Dec ? 14:49:41 10° ESE 14:53:30 24° ENE 14:57:20 10° N visible
08 Dec ? 13:57:56 10° ENE 13:59:14 11° NE 14:00:31 10° NNE visible
09 Dec ? 14:37:52 10° E 14:41:19 20° NE 14:44:47 10° N visible
